Location: Parkway Village
(35.0643°N, 89.9062°W)
Time: 15:35:08
(UTC+00:00)

BlueWalker 3 - Pass Details

Date: 18 August 2024
Orbit: 475 x 487 km, 53.2° (Epoch: 17 September)

Event Time Altitude Azimuth Distance (km) Brightness Sun altitude
Rises 09:44:57 0° 330° (NNW) 2,567 5.6 -19.0°
Reaches altitude 10° 09:48:59 10° 13° (NNE) 1,684 5.2 -18.3°
Maximum altitude 09:49:44 10° 24° (NNE) 1,655 5.4 -18.2°
Drops below altitude 10° 09:50:29 10° 35° (NE) 1,683 5.6 -18.0°
Sets 09:54:30 0° 78° (ENE) 2,562 6.9 -17.3°
